This demonstration page uses our WeatherBlox Daily Observations layout. Learn more.

Left ArrowRight Arrow

34.74481, -87.66753

Hourly Observations for March 12, 2021

Temp ( °F °C ) Dew Point ( °F °C ) Humidity (%) Winds ( mph kmh ) Pressure ( in mb ) Visibility ( mi km ) Precip ( " mm )
7:53 am 07:53 Mostly Cloudy 66 18.9 57 13.9 73 73 WSW 6 9 30.33 1027 10 16 0.00 0.00
8:53 am 08:53 Cloudy 67 19.4 58 14.4 73 73 SW 6 9 30.34 1027 10 16 0.00 0.00
9:53 am 09:53 Cloudy 70 21.1 59 15 68 68 WSW 9 15 30.34 1028 10 16 0.00 0.00
10:53 am 10:53 Partly Cloudy 73 22.8 60 15.6 64 64 WSW 6 9 30.32 1027 10 16 0.00 0.00
11:43 am 11:43 Mostly Cloudy 76 24.4 60 15.6 58 58 WSW 9 15 30.30 1026 10 16 0.00 0.00
11:53 am 11:53 Partly Cloudy 76 24.4 60 15.6 58 58 VRB 6 9 30.30 1026 10 16 0.00 0.00
12:53 pm 12:53 Mostly Cloudy 76 24.4 58 14.4 54 54 WSW 10 17 30.27 1025 10 16 0.00 0.00
1:53 pm 13:53 Sunny 78 25.6 59 15 52 52 WSW 6 9 30.25 1024 10 16 0.00 0.00
2:53 pm 14:53 Mostly Cloudy 79 26.1 57 13.9 47 47 SW 7 11 30.23 1024 10 16 0.00 0.00
3:53 pm 15:53 Mostly Cloudy 79 26.1 56 13.3 45 45 W 7 11 30.23 1024 10 16 0.00 0.00
4:53 pm 16:53 Cloudy 77 25 56 13.3 48 48 SW 7 11 30.22 1023 10 16 0.00 0.00
5:53 pm 17:53 Cloudy 74 23.3 57 13.9 56 56 W 5 7 30.24 1024 10 16 0.00 0.00
6:53 pm 18:53 Cloudy 71 21.7 59 15 66 66 NNE 12 19 30.26 1025 10 16 0.00 0.00
7:53 pm 19:53 Cloudy 69 20.6 59 15 70 70 NNE 7 11 30.28 1025 10 16 0.00 0.00
8:53 pm 20:53 Mostly Clear 67 19.4 59 15 76 76 E 6 9 30.28 1025 10 16 0.00 0.00
9:53 pm 21:53 Mostly Cloudy 66 18.9 59 15 78 78 NNE 3 6 30.29 1026 10 16 0.00 0.00
10:23 pm 22:23 Mostly Cloudy 65 18.3 58 14.4 78 78 ENE 3 6 30.28 1025 9 14 0.00 0.00
10:32 pm 22:32 Cloudy 65 18.3 58 14.4 78 78 Calm 30.28 1025 9 14 0.00 0.00
10:53 pm 22:53 Cloudy 65 18.3 59 15 81 81 E 7 11 30.27 1025 9 14 0.00 0.00
11:00 pm 23:00 Cloudy 65 18.3 59 15 81 81 ESE 5 7 30.27 1025 9 14 0.00 0.00
11:50 pm 23:50 Mostly Cloudy 64 18 57 14 78 78 E 5 7 30.26 1025 8 13 0.00 0.00
11:53 pm 23:53 Mostly Cloudy 64 17.8 58 14.4 81 81 ESE 6 9 30.25 1024 8 13 0.00 0.00

Powered by AerisWeather